TimePDT,TemperatureF,Dew PointF,Humidity,Sea Level PressureIn,VisibilityMPH,Wind Direction,Wind SpeedMPH,Gust SpeedMPH,PrecipitationIn,Events,Conditions,WindDirDegrees,DateUTC
12:53 AM,50.0,46.0,86,30.12,10.0,West,3.5,-,N/A,,Clear,270,2013-07-13 07:53:00
1:53 AM,48.0,46.0,93,30.12,10.0,Calm,Calm,-,N/A,,Clear,0,2013-07-13 08:53:00
2:53 AM,48.0,46.0,93,30.14,10.0,Calm,Calm,-,N/A,,Clear,0,2013-07-13 09:53:00
3:53 AM,46.9,46.0,97,30.15,10.0,WNW,3.5,-,N/A,,Clear,290,2013-07-13 10:53:00
4:13 AM,48.2,46.4,93,30.14,10.0,WNW,3.5,-,N/A,,Scattered Clouds,290,2013-07-13 11:13:00
4:22 AM,48.2,46.4,93,30.15,9.0,Calm,Calm,-,N/A,,Mostly Cloudy,0,2013-07-13 11:22:00
4:53 AM,48.9,48.0,97,30.15,3.0,West,3.5,-,N/A,,Overcast,270,2013-07-13 11:53:00
5:03 AM,48.2,48.2,100,30.15,2.0,Calm,Calm,-,N/A,,Overcast,0,2013-07-13 12:03:00
5:10 AM,48.2,48.2,100,30.15,1.8,West,3.5,-,N/A,,Overcast,270,2013-07-13 12:10:00
5:38 AM,48.2,48.2,100,30.15,0.5,West,4.6,-,N/A,Fog,Fog,270,2013-07-13 12:38:00
5:53 AM,48.9,48.0,97,30.16,0.2,West,3.5,-,N/A,Fog,Fog,270,2013-07-13 12:53:00
6:53 AM,48.9,48.9,100,30.17,0.2,Calm,Calm,-,N/A,Fog,Fog,0,2013-07-13 13:53:00
7:53 AM,50.0,50.0,100,30.19,0.2,Calm,Calm,-,N/A,Fog,Fog,0,2013-07-13 14:53:00
8:07 AM,50.0,50.0,100,30.19,2.0,Calm,Calm,-,N/A,,Overcast,0,2013-07-13 15:07:00
8:27 AM,50.0,50.0,100,30.19,5.0,Calm,Calm,-,N/A,,Overcast,0,2013-07-13 15:27:00
8:53 AM,51.1,50.0,96,30.20,10.0,Calm,Calm,-,N/A,,Mostly Cloudy,0,2013-07-13 15:53:00
9:04 AM,51.8,50.0,94,30.19,10.0,Calm,Calm,-,N/A,,Partly Cloudy,0,2013-07-13 16:04:00
9:53 AM,59.0,50.0,72,30.20,10.0,Variable,3.5,-,N/A,,Clear,0,2013-07-13 16:53:00
10:53 AM,62.1,51.1,67,30.19,10.0,South,3.5,-,N/A,,Clear,190,2013-07-13 17:53:00
11:53 AM,66.0,52.0,60,30.18,10.0,Calm,Calm,-,N/A,,Clear,0,2013-07-13 18:53:00
12:53 PM,71.1,50.0,47,30.17,10.0,NE,3.5,-,N/A,,Clear,50,2013-07-13 19:53:00
1:53 PM,73.0,51.1,46,30.15,10.0,East,6.9,-,N/A,,Partly Cloudy,90,2013-07-13 20:53:00
2:53 PM,75.0,48.0,38,30.13,10.0,Calm,Calm,-,N/A,,Clear,0,2013-07-13 21:53:00
3:53 PM,77.0,48.9,37,30.12,10.0,SE,8.1,-,N/A,,Clear,130,2013-07-13 22:53:00
4:53 PM,75.9,50.0,40,30.11,10.0,SE,5.8,-,N/A,,Clear,130,2013-07-13 23:53:00
5:53 PM,77.0,48.9,37,30.10,10.0,Calm,Calm,-,N/A,,Clear,0,2013-07-14 00:53:00
6:53 PM,75.9,48.0,37,30.09,10.0,NNW,5.8,-,N/A,,Clear,330,2013-07-14 01:53:00
7:53 PM,73.0,46.9,39,30.09,10.0,North,5.8,-,N/A,,Clear,350,2013-07-14 02:53:00
8:53 PM,68.0,46.0,45,30.10,10.0,NW,3.5,-,N/A,,Clear,310,2013-07-14 03:53:00
9:53 PM,64.0,46.0,52,30.11,10.0,ESE,3.5,-,N/A,,Clear,120,2013-07-14 04:53:00
10:53 PM,55.0,48.9,80,30.12,10.0,Calm,Calm,-,N/A,,Clear,0,2013-07-14 05:53:00
11:53 PM,52.0,48.0,86,30.12,10.0,Calm,Calm,-,N/A,,Clear,0,2013-07-14 06:53:00